Location: DARK SKY Beskydy - Park tmavé oblohy, www.darkskybeskydy.cz
(49.4926°N, 18.5016°E)
Time: 12:09:18
(UTC+02:00)

BlueWalker 3 - Pass Details

Date: 19 June 2024
Orbit: 480 x 491 km, 53.2° (Epoch: 23 July)

Event Time Altitude Azimuth Distance (km) Brightness Sun altitude
Rises 03:04:14 0° 293° (WNW) 2,538 5.4 -11.0°
Reaches altitude 10° 03:06:24 10° 294° (WNW) 1,657 4.5 -10.8°
Maximum altitude 03:10:09 87° 22° (NNE) 486 1.8 -10.5°
Drops below altitude 10° 03:13:53 10° 113° (ESE) 1,654 4.7 -10.1°
Sets 03:16:03 0° 114° (ESE) 2,533 5.6 -9.9°
